Regional Weather Roundup
Issued by NWS

Home | Current Version | Previous Version | Text Only | Print | Product List | Glossary On
Versions: 1 2 3 4 5 6 7 8 9 10 11 12 13 14 15 16 17 18 19 20 21 22 23 24 25 26 27 28 29 30 31 32 33 34 35 36 37 38 39 40 41 42 43 44 45 46 47 48 49 50
000
ASUS45 KABQ 251010
RWRNM
NEW MEXICO REGIONAL WEATHER ROUNDUP
NATIONAL WEATHER SERVICE ALBUQUERQUE NM
400 AM MDT SAT MAR 25 2017

NOTE: "FAIR" MEANS FEW OR NO CLOUDS BELOW 12,000 FEET AGL WITH NO
       SIGNIFICANT WEATHER OR OBSTRUCTIONS TO VISION.

      THIS PRODUCT IS RELEASED AS TWO VERSIONS.  ONE VERSION NEAR
      THE TOP OF THE HOUR CONTAINING PRELIMINARY DATA FROM ALBUQUERQUE
      AND OTHER STATIONS.  A FINAL VERSION WITH ADDITIONAL DATA IS
      ISSUED ABOUT 10 MINUTES AFTER THE HOUR.

NMZ501-503-504-510>518-251100-
NORTHWEST PLATEAU/NORTHCENTRAL MOUNTAINS

CITY           SKY/WX    TMP DP  RH WIND       PRES   REMARKS
FARMINGTON     FAIR      32  22  66 NE8       30.13F WCI  25
LOS ALAMOS     FAIR      41  29  63 CALM      30.19F
SANTA FE       FAIR      30  27  88 N7        30.16F WCI  23
TAOS             N/A     27  19  74 N7        30.19F WCI  19
ANGEL FIRE     FOG       17  16  95 CALM      30.21F VSB 3/4

$$
NMZ402-403-502-505>509-251100-
WESTCENTRAL MOUNTAINS/SOUTHWEST MOUNTAINS

CITY           SKY/WX    TMP DP  RH WIND       PRES   REMARKS
GALLUP         FAIR      28  22  78 NE5       30.20F WCI  23
GRANTS         FAIR      29  21  73 W9        30.22F WCI  20
SILVER CITY    FAIR      39  26  57 CALM      30.17S

$$
NMZ407-409-411-412-251100-
SOUTHERN DESERTS

CITY           SKY/WX    TMP DP  RH WIND       PRES   REMARKS
DEMING         FAIR      41  26  55 W8        30.12F
LAS CRUCES     FAIR      43  24  46 CALM      30.14S
HOLLOMAN AFB   FAIR      47  24  40 S6        30.16S
ALAMOGORDO     FAIR      41  19  42 N3        30.13F
T OR C         FAIR      48  22  35 NW7       30.13S

$$
NMZ519>523-251100-
CENTRAL VALLEYS/CENTRAL HIGHLANDS

CITY           SKY/WX    TMP DP  RH WIND       PRES   REMARKS
ALBUQUERQUE    FAIR      44  18  35 SE3       30.16F
MORIARTY ARPT  FAIR      21  19  91 CALM      30.17F
CLINES CORNERS FAIR      32  22  66 W8        30.16F WCI  25
BELEN          FAIR      36  20  53 NE6       30.15S WCI  31
SOCORRO        FAIR      44  22  43 SW6       30.15R

$$
NMZ524>526-539-540-251100-
SOUTHCENTRAL MOUNTAINS

CITY           SKY/WX    TMP DP  RH WIND       PRES   REMARKS
RUIDOSO        FAIR      34  23  64 W6        30.22S WCI  29

$$
NMZ527>531-251100-
NORTHEAST HIGHLANDS/NORTHEAST PLAINS

CITY           SKY/WX    TMP DP  RH WIND       PRES   REMARKS
LAS VEGAS      FAIR      27  23  85 NW6       30.14S WCI  20
RATON          FAIR      30  25  81 E5        30.12S WCI  25
CLAYTON        FAIR      39  32  76 NW13      30.09F WCI  31

$$
NMZ532>537-251100-
EASTCENTRAL PLAINS

CITY           SKY/WX    TMP DP  RH WIND       PRES   REMARKS
TUCUMCARI      FAIR      32  26  78 W5        30.10S WCI  27
CANNON AFB     FAIR      38  31  73 W7        30.13R WCI  33
CLOVIS AIRPORT FAIR      34  27  75 NW6       30.13R WCI  29

$$
NMZ028-029-538-251100-
SOUTHEAST PLAINS

CITY           SKY/WX    TMP DP  RH WIND       PRES   REMARKS
ROSWELL        FAIR      39  24  55 W3          N/A
ARTESIA        FAIR      39  25  56 SW7       30.16F WCI  34
CARLSBAD       FAIR      41  26  55 SW6       30.16S
HOBBS          FAIR      39  28  65 W7        30.16R WCI  34


$$



USA.gov is the U.S. government's official web portal to all federal, state and local government web resources and services.